Regional Weather Roundup
Issued by NWS Binghamton, NY

Home | Current Version | Previous Version | Text Only | Print | Product List | Glossary On
Versions: 1 2 3 4 5 6 7 8 9 10 11 12 13 14 15 16 17 18 19 20 21 22 23 24 25 26 27
000
ASUS41 KBGM 292110
RWRBGM

REGIONAL WEATHER ROUNDUP
NATIONAL WEATHER SERVICE BINGHAMTON NY
500 PM EDT MON AUG 29 2016

Note: "fair" indicates few or no clouds below 12,000 feet with no
significant weather and/or obstructions to visibility.

* = Station(s) that does not report precipitation, such as rain,
snow, etc, also no thunder or fog.

NYZ009-015>018-022>025-036-037-044>046-055>057-062-292200
...Central New York...

CITY           SKY/WX    TMP DP  RH WIND       PRES   REMARKS
Binghamton     SUNNY     76  57  51 NW8       30.20F
Cortland       FAIR      77  59  53 N5        30.21S
Dansville      PTSUNNY   80  59  48 NW5       30.20F
Elmira         MOSUNNY   81  61  50 N7        30.17F
Ithaca         MOSUNNY   76  61  59 N9        30.21S
Hamilton       SUNNY     75  55  50 NW7       30.21S
Hornell        MOSUNNY   79  57  47 NW6       30.24F
Monticello     SUNNY     79  57  47 N12G18    30.18S
Norwich        MOSUNNY   75  55  50 N9        30.19F
Oneonta        SUNNY     72  54  53 N3        30.21S
Penn Yan       MOSUNNY   78  59  51 N8        30.21S
Rome           SUNNY     77  59  53 NW10      30.17S
Sidney         MOSUNNY   77  61  57 N7        30.18S
Syracuse       NOT AVBL
$$

PAZ038>040-043-044-047-048-072-292200
...Northeast Pennsylvania...

CITY           SKY/WX    TMP DP  RH WIND       PRES   REMARKS
Hazleton       SUNNY     79  59  50 N7        30.21S
Scranton       MOSUNNY   83  60  45 NW12      30.15F
$$
&&
KEY
WCI = Wind Chill Index
VSB = Visibility
HX  = Heat Index
$$




USA.gov is the U.S. government's official web portal to all federal, state and local government web resources and services.